Location: Bu�n Treun
(12.1333°N, 108.3167°E)
Time: 07:10:43
(UTC+00:00)

N. Korean satellite - Pass Details

Date: 21 June 2021
Orbit: 451 x 497 km, 97.2° (Epoch: 27 July)

Event Time Altitude Azimuth Distance (km) Brightness Sun altitude
Rises 21:25:15 0° 24° (NNE) 2,563 11.1 -13.6°
Reaches altitude 10° 21:27:26 10° 33° (NNE) 1,686 10.3 -13.2°
Maximum altitude 21:30:46 34° 100° (E) 831 8.3 -12.5°
Drops below altitude 10° 21:34:07 10° 166° (SSE) 1,694 9.2 -11.7°
Sets 21:36:19 0° 176° (S) 2,576 10.0 -11.2°
